Data supplied by UK-AIR on 29/3/2018
All Data GMT hour ending 
Status: R =Ratified P=Provisional,P*=As supplied
,,Fort William,,,,,,,,,,,,,,,,,,,,,,,
Date,time,"Nitric oxide",status,unit,"Nitrogen dioxide",status,unit,"Nitrogen oxides as nitrogen dioxide",status,unit,"Ozone",status,unit
 
01-01-2017,01:00,1.10594,R,ugm-3,11.43293,R,ugm-3,13.12868,R,ugm-3,35.85608,R,ugm-3
01-01-2017,02:00,0.86531,R,ugm-3,10.84340,R,ugm-3,12.17019,R,ugm-3,44.57063,R,ugm-3
01-01-2017,03:00,0.46867,R,ugm-3,6.41739,R,ugm-3,7.13602,R,ugm-3,48.64519,R,ugm-3
01-01-2017,04:00,0.50485,R,ugm-3,8.68562,R,ugm-3,9.45970,R,ugm-3,46.94884,R,ugm-3
01-01-2017,05:00,0.46867,R,ugm-3,6.52832,R,ugm-3,7.24694,R,ugm-3,41.51056,R,ugm-3
01-01-2017,06:00,0.32430,R,ugm-3,2.43461,R,ugm-3,2.93186,R,ugm-3,53.18541,R,ugm-3
01-01-2017,07:00,0.28813,R,ugm-3,2.37963,R,ugm-3,2.82142,R,ugm-3,58.92304,R,ugm-3
01-01-2017,08:00,0.46867,R,ugm-3,5.69829,R,ugm-3,6.41692,R,ugm-3,55.13121,R,ugm-3
01-01-2017,09:00,0.54071,R,ugm-3,6.58330,R,ugm-3,7.41237,R,ugm-3,42.50841,R,ugm-3
01-01-2017,10:00,1.00938,R,ugm-3,11.56345,R,ugm-3,13.11114,R,ugm-3,37.56905,R,ugm-3
01-01-2017,11:00,2.63149,R,ugm-3,20.41594,R,ugm-3,24.45083,R,ugm-3,28.78797,R,ugm-3
01-01-2017,12:00,0.43281,R,ugm-3,2.60052,R,ugm-3,3.26416,R,ugm-3,59.72132,R,ugm-3
01-01-2017,13:00,0.43250,R,ugm-3,1.49414,R,ugm-3,2.15730,R,ugm-3,68.30283,R,ugm-3
01-01-2017,14:00,0.32461,R,ugm-3,1.43868,R,ugm-3,1.93641,R,ugm-3,70.49810,R,ugm-3
01-01-2017,15:00,0.25258,R,ugm-3,1.16184,R,ugm-3,1.54913,R,ugm-3,71.97825,R,ugm-3
01-01-2017,16:00,0.28844,R,ugm-3,1.71503,R,ugm-3,2.15730,R,ugm-3,71.34628,R,ugm-3
01-01-2017,17:00,0.25227,R,ugm-3,1.54960,R,ugm-3,1.93641,R,ugm-3,68.45251,R,ugm-3
01-01-2017,18:00,0.28813,R,ugm-3,3.04374,R,ugm-3,3.48553,R,ugm-3,66.65638,R,ugm-3
01-01-2017,19:00,0.36047,R,ugm-3,4.14917,R,ugm-3,4.70188,R,ugm-3,61.66713,R,ugm-3
01-01-2017,20:00,0.25258,R,ugm-3,5.42098,R,ugm-3,5.80826,R,ugm-3,57.47616,R,ugm-3
01-01-2017,21:00,1.18961,R,ugm-3,20.08221,R,ugm-3,21.90625,R,ugm-3,38.96604,R,ugm-3
01-01-2017,22:00,0.72063,R,ugm-3,12.83527,R,ugm-3,13.94021,R,ugm-3,40.06368,R,ugm-3
01-01-2017,23:00,1.04524,R,ugm-3,14.99352,R,ugm-3,16.59620,R,ugm-3,31.53206,R,ugm-3
01-01-2017,24:00,0.93735,R,ugm-3,14.71573,R,ugm-3,16.15298,R,ugm-3,26.14367,R,ugm-3
02-01-2017,01:00,1.29886,R,ugm-3,20.37705,R,ugm-3,22.36860,R,ugm-3,15.56646,R,ugm-3
02-01-2017,02:00,1.01031,R,ugm-3,13.01217,R,ugm-3,14.56130,R,ugm-3,16.96345,R,ugm-3
02-01-2017,03:00,0.75711,R,ugm-3,8.58378,R,ugm-3,9.74467,R,ugm-3,20.75528,R,ugm-3
02-01-2017,04:00,0.68508,R,ugm-3,7.69733,R,ugm-3,8.74778,R,ugm-3,18.51012,R,ugm-3
02-01-2017,05:00,0.75774,R,ugm-3,15.00595,R,ugm-3,16.16780,R,ugm-3,17.96130,R,ugm-3
02-01-2017,06:00,0.79391,R,ugm-3,15.17138,R,ugm-3,16.38869,R,ugm-3,21.70324,R,ugm-3
02-01-2017,07:00,2.12883,R,ugm-3,11.46353,R,ugm-3,14.72768,R,ugm-3,27.04174,R,ugm-3
02-01-2017,08:00,2.99446,R,ugm-3,22.31648,R,ugm-3,26.90792,R,ugm-3,17.41248,R,ugm-3
02-01-2017,09:00,3.78805,R,ugm-3,29.18332,R,ugm-3,34.99158,R,ugm-3,24.79657,R,ugm-3
02-01-2017,10:00,1.69570,R,ugm-3,17.55340,R,ugm-3,20.15345,R,ugm-3,44.15486,R,ugm-3
02-01-2017,11:00,1.40695,R,ugm-3,11.73940,R,ugm-3,13.89670,R,ugm-3,56.47831,R,ugm-3
02-01-2017,12:00,4.29321,R,ugm-3,16.94810,R,ugm-3,23.53092,R,ugm-3,55.77982,R,ugm-3
02-01-2017,13:00,4.11297,R,ugm-3,14.78793,R,ugm-3,21.09440,R,ugm-3,59.27229,R,ugm-3
02-01-2017,14:00,2.48930,R,ugm-3,10.52353,R,ugm-3,14.34040,R,ugm-3,66.45681,R,ugm-3
02-01-2017,15:00,1.40695,R,ugm-3,5.92636,R,ugm-3,8.08366,R,ugm-3,70.59789,R,ugm-3
02-01-2017,16:00,0.93828,R,ugm-3,3.43342,R,ugm-3,4.87209,R,ugm-3,73.89079,R,ugm-3
02-01-2017,17:00,1.22672,R,ugm-3,4.59669,R,ugm-3,6.47764,R,ugm-3,73.34198,R,ugm-3
02-01-2017,18:00,2.99446,R,ugm-3,10.85583,R,ugm-3,15.44726,R,ugm-3,68.25294,R,ugm-3
02-01-2017,19:00,4.18500,R,ugm-3,10.91273,R,ugm-3,17.32964,R,ugm-3,68.20305,R,ugm-3
02-01-2017,20:00,6.78282,R,ugm-3,16.45276,R,ugm-3,26.85293,R,ugm-3,65.45896,R,ugm-3
02-01-2017,21:00,0.93797,R,ugm-3,2.88070,R,ugm-3,4.31890,R,ugm-3,78.08176,R,ugm-3
02-01-2017,22:00,0.64953,R,ugm-3,1.99426,R,ugm-3,2.99019,R,ugm-3,80.07746,R,ugm-3
02-01-2017,23:00,1.55164,R,ugm-3,2.76978,R,ugm-3,5.14893,R,ugm-3,78.53080,R,ugm-3
02-01-2017,24:00,0.54133,R,ugm-3,1.71695,R,ugm-3,2.54697,R,ugm-3,78.08176,R,ugm-3
03-01-2017,01:00,0.67437,R,ugm-3,2.14009,R,ugm-3,3.17411,R,ugm-3,75.96965,R,ugm-3
03-01-2017,02:00,0.54164,R,ugm-3,1.27373,R,ugm-3,2.10423,R,ugm-3,68.71860,R,ugm-3
03-01-2017,03:00,0.32461,R,ugm-3,1.21826,R,ugm-3,1.71599,R,ugm-3,73.39187,R,ugm-3
03-01-2017,04:00,0.43313,R,ugm-3,1.10734,R,ugm-3,1.77145,R,ugm-3,72.44391,R,ugm-3
03-01-2017,05:00,0.32492,R,ugm-3,0.11093,R,ugm-3,0.60913,R,ugm-3,73.04262,R,ugm-3
03-01-2017,06:00,0.64984,R,ugm-3,2.38106,R,ugm-3,3.37748,R,ugm-3,70.59789,R,ugm-3
03-01-2017,07:00,0.54133,R,ugm-3,1.99378,R,ugm-3,2.82381,R,ugm-3,70.74757,R,ugm-3
03-01-2017,08:00,0.43313,R,ugm-3,3.48840,R,ugm-3,4.15252,R,ugm-3,68.70197,R,ugm-3
03-01-2017,09:00,0.86656,R,ugm-3,4.65072,R,ugm-3,5.97943,R,ugm-3,65.55875,R,ugm-3
03-01-2017,10:00,1.01094,R,ugm-3,5.81400,R,ugm-3,7.36408,R,ugm-3,65.95789,R,ugm-3
03-01-2017,11:00,7.11335,R,ugm-3,19.76664,R,ugm-3,30.67363,R,ugm-3,55.03143,R,ugm-3
03-01-2017,12:00,2.23859,R,ugm-3,9.74467,R,ugm-3,13.17713,R,ugm-3,63.96219,R,ugm-3
03-01-2017,13:00,3.64711,R,ugm-3,9.74467,R,ugm-3,15.33682,R,ugm-3,67.40477,R,ugm-3
03-01-2017,14:00,2.31125,R,ugm-3,5.31484,R,ugm-3,8.85870,R,ugm-3,72.34413,R,ugm-3
03-01-2017,15:00,1.40820,R,ugm-3,3.87616,R,ugm-3,6.03537,R,ugm-3,74.04047,R,ugm-3
03-01-2017,16:00,1.26352,R,ugm-3,3.59933,R,ugm-3,5.53669,R,ugm-3,74.43961,R,ugm-3
03-01-2017,17:00,0.83070,R,ugm-3,1.99330,R,ugm-3,3.26703,R,ugm-3,76.38542,R,ugm-3
03-01-2017,18:00,1.01094,R,ugm-3,2.98972,R,ugm-3,4.53980,R,ugm-3,75.78671,R,ugm-3
03-01-2017,19:00,0.79453,R,ugm-3,1.99330,R,ugm-3,3.21157,R,ugm-3,76.23574,R,ugm-3
03-01-2017,20:00,0.46930,R,ugm-3,1.60554,R,ugm-3,2.32512,R,ugm-3,76.48520,R,ugm-3
03-01-2017,21:00,0.39695,R,ugm-3,1.88286,R,ugm-3,2.49151,R,ugm-3,76.13596,R,ugm-3
03-01-2017,22:00,0.36109,R,ugm-3,7.86181,R,ugm-3,8.41548,R,ugm-3,65.75832,R,ugm-3
03-01-2017,23:00,0.36109,R,ugm-3,3.26655,R,ugm-3,3.82022,R,ugm-3,74.19015,R,ugm-3
03-01-2017,24:00,0.25320,R,ugm-3,0.55271,R,ugm-3,0.94095,R,ugm-3,80.22714,R,ugm-3
04-01-2017,01:00,0.38500,R,ugm-3,3.39596,R,ugm-3,3.98629,R,ugm-3,70.71430,R,ugm-3
04-01-2017,02:00,0.43323,R,ugm-3,1.84620,R,ugm-3,2.51048,R,ugm-3,70.51473,R,ugm-3
04-01-2017,03:00,0.25289,R,ugm-3,2.04877,R,ugm-3,2.43653,R,ugm-3,66.70627,R,ugm-3
04-01-2017,04:00,0.28937,R,ugm-3,0.60818,R,ugm-3,1.05188,R,ugm-3,74.68907,R,ugm-3
04-01-2017,05:00,0.25320,R,ugm-3,0.66364,R,ugm-3,1.05188,R,ugm-3,75.28778,R,ugm-3
04-01-2017,06:00,0.28906,R,ugm-3,3.21109,R,ugm-3,3.65431,R,ugm-3,70.79746,R,ugm-3
04-01-2017,07:00,0.43281,R,ugm-3,7.08773,R,ugm-3,7.75136,R,ugm-3,60.91874,R,ugm-3
04-01-2017,08:00,1.80547,R,ugm-3,27.07431,R,ugm-3,29.84265,R,ugm-3,36.27185,R,ugm-3
04-01-2017,09:00,2.85258,R,ugm-3,27.29568,R,ugm-3,31.66957,R,ugm-3,37.96819,R,ugm-3
04-01-2017,10:00,2.27508,R,ugm-3,25.19193,R,ugm-3,28.68033,R,ugm-3,39.16561,R,ugm-3
04-01-2017,11:00,,,,,,,,,,19.50797,R,ugm-3
04-01-2017,12:00,,,,,,,,,,,,
04-01-2017,13:00,,,,,,,,,,,,
04-01-2017,14:00,1.34833,R,ugm-3,5.83185,R,ugm-3,7.89926,R,ugm-3,,,
04-01-2017,15:00,4.40515,R,ugm-3,20.65213,R,ugm-3,27.40660,R,ugm-3,44.30454,R,ugm-3
04-01-2017,16:00,6.39117,R,ugm-3,35.43528,R,ugm-3,45.23493,R,ugm-3,30.48432,R,ugm-3
04-01-2017,17:00,25.89052,R,ugm-3,52.59805,R,ugm-3,92.29629,R,ugm-3,10.97635,R,ugm-3
04-01-2017,18:00,27.58747,R,ugm-3,49.22106,R,ugm-3,91.52125,R,ugm-3,5.73764,R,ugm-3
04-01-2017,19:00,8.05226,R,ugm-3,34.16155,R,ugm-3,46.50818,R,ugm-3,14.51872,R,ugm-3
04-01-2017,20:00,4.98296,R,ugm-3,28.07120,R,ugm-3,35.71163,R,ugm-3,21.65335,R,ugm-3
04-01-2017,21:00,9.13554,R,ugm-3,34.54979,R,ugm-3,48.55742,R,ugm-3,16.01549,R,ugm-3
04-01-2017,22:00,12.06077,R,ugm-3,31.00497,R,ugm-3,49.49789,R,ugm-3,9.72904,R,ugm-3
04-01-2017,23:00,12.85499,R,ugm-3,32.00186,R,ugm-3,51.71257,R,ugm-3,4.34065,R,ugm-3
04-01-2017,24:00,3.61093,R,ugm-3,20.98395,R,ugm-3,26.52064,R,ugm-3,11.62495,R,ugm-3
05-01-2017,01:00,4.04790,R,ugm-3,19.52790,R,ugm-3,25.73460,R,ugm-3,8.38194,R,ugm-3
05-01-2017,02:00,2.07218,R,ugm-3,14.12700,R,ugm-3,17.30430,R,ugm-3,12.90553,R,ugm-3
05-01-2017,03:00,1.04773,R,ugm-3,11.48265,R,ugm-3,13.08915,R,ugm-3,14.66840,R,ugm-3
05-01-2017,04:00,1.44562,R,ugm-3,11.03895,R,ugm-3,13.25554,R,ugm-3,12.42323,R,ugm-3
05-01-2017,05:00,2.20429,R,ugm-3,12.26056,R,ugm-3,15.64043,R,ugm-3,12.77248,R,ugm-3
05-01-2017,06:00,9.57739,R,ugm-3,18.53691,R,ugm-3,33.22204,R,ugm-3,6.53592,R,ugm-3
05-01-2017,07:00,15.25167,R,ugm-3,23.14747,R,ugm-3,46.53304,R,ugm-3,2.69420,R,ugm-3
05-01-2017,08:00,51.53625,R,ugm-3,28.85341,R,ugm-3,107.87456,R,ugm-3,1.04774,R,ugm-3
05-01-2017,09:00,77.34071,R,ugm-3,36.65211,R,ugm-3,155.23954,R,ugm-3,1.19742,R,ugm-3
05-01-2017,10:00,86.19529,R,ugm-3,39.21486,R,ugm-3,171.37913,R,ugm-3,2.04559,R,ugm-3
05-01-2017,11:00,32.27326,R,ugm-3,35.87181,R,ugm-3,85.35679,R,ugm-3,5.93721,R,ugm-3
05-01-2017,12:00,26.74398,R,ugm-3,34.25574,R,ugm-3,75.26261,R,ugm-3,7.93291,R,ugm-3
05-01-2017,13:00,26.09352,R,ugm-3,41.24306,R,ugm-3,81.25256,R,ugm-3,6.83527,R,ugm-3
05-01-2017,14:00,10.95067,R,ugm-3,31.84982,R,ugm-3,48.64061,R,ugm-3,21.95270,R,ugm-3
05-01-2017,15:00,1.12039,R,ugm-3,3.16280,R,ugm-3,4.88070,R,ugm-3,68.40262,R,ugm-3
05-01-2017,16:00,1.91523,R,ugm-3,4.49533,R,ugm-3,7.43198,R,ugm-3,68.75187,R,ugm-3
05-01-2017,17:00,1.19242,R,ugm-3,4.16160,R,ugm-3,5.98995,R,ugm-3,68.90154,R,ugm-3
05-01-2017,18:00,1.59000,R,ugm-3,4.32847,R,ugm-3,6.76643,R,ugm-3,68.00348,R,ugm-3
05-01-2017,19:00,1.12039,R,ugm-3,4.43843,R,ugm-3,6.15634,R,ugm-3,67.60434,R,ugm-3
05-01-2017,20:00,1.91554,R,ugm-3,5.77049,R,ugm-3,8.70761,R,ugm-3,66.40692,R,ugm-3
05-01-2017,21:00,2.24109,R,ugm-3,8.15538,R,ugm-3,11.59166,R,ugm-3,60.66928,R,ugm-3
05-01-2017,22:00,1.01187,R,ugm-3,8.32081,R,ugm-3,9.87233,R,ugm-3,57.67573,R,ugm-3
05-01-2017,23:00,0.61492,R,ugm-3,6.98828,R,ugm-3,7.93114,R,ugm-3,56.87745,R,ugm-3
05-01-2017,24:00,0.43406,R,ugm-3,5.04709,R,ugm-3,5.71264,R,ugm-3,56.07917,R,ugm-3
06-01-2017,01:00,0.43406,R,ugm-3,4.51478,R,ugm-3,5.18033,R,ugm-3,56.74440,R,ugm-3
06-01-2017,02:00,0.53052,R,ugm-3,3.25762,R,ugm-3,4.07108,R,ugm-3,57.67573,R,ugm-3
06-01-2017,03:00,0.36172,R,ugm-3,2.72053,R,ugm-3,3.27516,R,ugm-3,57.47616,R,ugm-3
06-01-2017,04:00,0.36172,R,ugm-3,2.22041,R,ugm-3,2.77504,R,ugm-3,56.87745,R,ugm-3
06-01-2017,05:00,0.47023,R,ugm-3,2.38728,R,ugm-3,3.10829,R,ugm-3,55.92949,R,ugm-3
06-01-2017,06:00,4.67020,R,ugm-3,7.99377,R,ugm-3,15.15465,R,ugm-3,54.18326,R,ugm-3
06-01-2017,07:00,3.11326,R,ugm-3,7.21682,R,ugm-3,11.99042,R,ugm-3,51.18971,R,ugm-3
06-01-2017,08:00,3.87411,R,ugm-3,13.98803,R,ugm-3,19.92825,R,ugm-3,45.65164,R,ugm-3
06-01-2017,09:00,2.42538,R,ugm-3,12.26821,R,ugm-3,15.98707,R,ugm-3,46.89895,R,ugm-3
06-01-2017,10:00,2.20835,R,ugm-3,10.99066,R,ugm-3,14.37674,R,ugm-3,46.35013,R,ugm-3
06-01-2017,11:00,9.73861,R,ugm-3,21.59356,R,ugm-3,36.52588,R,ugm-3,37.91830,R,ugm-3
06-01-2017,12:00,4.19935,R,ugm-3,16.93088,R,ugm-3,23.36979,R,ugm-3,38.71658,R,ugm-3
06-01-2017,13:00,3.98232,R,ugm-3,15.87614,R,ugm-3,21.98228,R,ugm-3,39.26540,R,ugm-3
06-01-2017,14:00,6.51652,R,ugm-3,17.92969,R,ugm-3,27.92154,R,ugm-3,37.71873,R,ugm-3
06-01-2017,15:00,6.40800,R,ugm-3,18.92801,R,ugm-3,28.75348,R,ugm-3,36.32174,R,ugm-3
06-01-2017,16:00,5.61160,R,ugm-3,18.76210,R,ugm-3,27.36644,R,ugm-3,35.22411,R,ugm-3
06-01-2017,17:00,7.53026,R,ugm-3,21.03846,R,ugm-3,32.58470,R,ugm-3,31.33249,R,ugm-3
06-01-2017,18:00,6.91441,R,ugm-3,23.92585,R,ugm-3,34.52780,R,ugm-3,26.94195,R,ugm-3
06-01-2017,19:00,16.00161,R,ugm-3,29.86464,R,ugm-3,54.40011,R,ugm-3,23.20001,R,ugm-3
06-01-2017,20:00,20.74416,R,ugm-3,30.80846,R,ugm-3,62.61573,R,ugm-3,22.40173,R,ugm-3
06-01-2017,21:00,4.16318,R,ugm-3,13.54528,R,ugm-3,19.92873,R,ugm-3,36.82067,R,ugm-3
06-01-2017,22:00,1.15843,R,ugm-3,10.49198,R,ugm-3,12.26821,R,ugm-3,41.71013,R,ugm-3
06-01-2017,23:00,0.86874,R,ugm-3,7.71550,R,ugm-3,9.04756,R,ugm-3,49.84261,R,ugm-3
06-01-2017,24:00,1.12195,R,ugm-3,7.38368,R,ugm-3,9.10398,R,ugm-3,48.19616,R,ugm-3
07-01-2017,01:00,0.62822,R,ugm-3,4.07363,R,ugm-3,5.03689,R,ugm-3,57.47616,R,ugm-3
07-01-2017,02:00,8.93815,R,ugm-3,12.74044,R,ugm-3,26.44541,R,ugm-3,57.14354,R,ugm-3
07-01-2017,03:00,0.39851,R,ugm-3,4.00047,R,ugm-3,4.61152,R,ugm-3,59.17251,R,ugm-3
07-01-2017,04:00,0.43500,R,ugm-3,2.83337,R,ugm-3,3.50035,R,ugm-3,48.99444,R,ugm-3
07-01-2017,05:00,0.90585,R,ugm-3,5.83360,R,ugm-3,7.22256,R,ugm-3,44.50411,R,ugm-3
07-01-2017,06:00,3.87692,R,ugm-3,9.33443,R,ugm-3,15.27896,R,ugm-3,55.48046,R,ugm-3
07-01-2017,07:00,1.37671,R,ugm-3,7.22256,R,ugm-3,9.33348,R,ugm-3,53.23530,R,ugm-3
07-01-2017,08:00,0.97820,R,ugm-3,10.33419,R,ugm-3,11.83407,R,ugm-3,57.92519,R,ugm-3
07-01-2017,09:00,0.79703,R,ugm-3,7.83408,R,ugm-3,9.05617,R,ugm-3,60.41982,R,ugm-3
07-01-2017,10:00,1.81170,R,ugm-3,15.94499,R,ugm-3,18.72290,R,ugm-3,48.14626,R,ugm-3
07-01-2017,11:00,4.96394,R,ugm-3,19.33442,R,ugm-3,26.94569,R,ugm-3,34.32604,R,ugm-3
07-01-2017,12:00,4.31192,R,ugm-3,25.83453,R,ugm-3,32.44604,R,ugm-3,31.63185,R,ugm-3
07-01-2017,13:00,5.58011,R,ugm-3,22.33418,R,ugm-3,30.89022,R,ugm-3,48.09637,R,ugm-3
07-01-2017,14:00,2.68138,R,ugm-3,11.33348,R,ugm-3,15.44487,R,ugm-3,59.87100,R,ugm-3
07-01-2017,15:00,2.75373,R,ugm-3,15.55628,R,ugm-3,19.77860,R,ugm-3,56.67788,R,ugm-3
07-01-2017,16:00,2.57256,R,ugm-3,18.44511,R,ugm-3,22.38964,R,ugm-3,51.68863,R,ugm-3
07-01-2017,17:00,2.42756,R,ugm-3,18.27920,R,ugm-3,22.00140,R,ugm-3,50.64089,R,ugm-3
07-01-2017,18:00,2.86224,R,ugm-3,23.27895,R,ugm-3,27.66766,R,ugm-3,45.00304,R,ugm-3
07-01-2017,19:00,1.99287,R,ugm-3,14.11186,R,ugm-3,17.16756,R,ugm-3,52.78627,R,ugm-3
07-01-2017,20:00,1.55788,R,ugm-3,12.16780,R,ugm-3,14.55652,R,ugm-3,53.03573,R,ugm-3
07-01-2017,21:00,0.68851,R,ugm-3,7.27802,R,ugm-3,8.33372,R,ugm-3,60.91874,R,ugm-3
07-01-2017,22:00,0.54382,R,ugm-3,3.77719,R,ugm-3,4.61104,R,ugm-3,68.35273,R,ugm-3
07-01-2017,23:00,0.61617,R,ugm-3,4.77790,R,ugm-3,5.72268,R,ugm-3,64.46111,R,ugm-3
07-01-2017,24:00,0.32617,R,ugm-3,2.49964,R,ugm-3,2.99976,R,ugm-3,67.35488,R,ugm-3
08-01-2017,01:00,0.38708,R,ugm-3,1.85321,R,ugm-3,2.44672,R,ugm-3,70.04907,R,ugm-3
08-01-2017,02:00,0.58031,R,ugm-3,0.94525,R,ugm-3,1.83504,R,ugm-3,70.64778,R,ugm-3
08-01-2017,03:00,0.36296,R,ugm-3,1.27803,R,ugm-3,1.83457,R,ugm-3,72.49380,R,ugm-3
08-01-2017,04:00,0.25414,R,ugm-3,0.77839,R,ugm-3,1.16806,R,ugm-3,74.14026,R,ugm-3
08-01-2017,05:00,0.29062,R,ugm-3,1.00024,R,ugm-3,1.44585,R,ugm-3,75.58714,R,ugm-3
08-01-2017,06:00,0.39914,R,ugm-3,1.61224,R,ugm-3,2.22424,R,ugm-3,72.34413,R,ugm-3
08-01-2017,07:00,0.47148,R,ugm-3,2.61343,R,ugm-3,3.33636,R,ugm-3,69.10111,R,ugm-3
08-01-2017,08:00,0.61648,R,ugm-3,4.56036,R,ugm-3,5.50561,R,ugm-3,67.15531,R,ugm-3
08-01-2017,09:00,0.54414,R,ugm-3,4.39253,R,ugm-3,5.22686,R,ugm-3,69.00133,R,ugm-3
08-01-2017,10:00,0.65327,R,ugm-3,5.11546,R,ugm-3,6.11713,R,ugm-3,66.60649,R,ugm-3
08-01-2017,11:00,1.34178,R,ugm-3,8.17403,R,ugm-3,10.23140,R,ugm-3,59.07272,R,ugm-3
08-01-2017,12:00,1.70444,R,ugm-3,8.73008,R,ugm-3,11.34352,R,ugm-3,54.48261,R,ugm-3
08-01-2017,13:00,1.99475,R,ugm-3,9.28614,R,ugm-3,12.34471,R,ugm-3,50.74067,R,ugm-3
08-01-2017,14:00,2.13974,R,ugm-3,7.33922,R,ugm-3,10.62011,R,ugm-3,52.33723,R,ugm-3
08-01-2017,15:00,1.84943,R,ugm-3,8.34137,R,ugm-3,11.17713,R,ugm-3,51.18971,R,ugm-3
08-01-2017,16:00,2.32060,R,ugm-3,9.73128,R,ugm-3,13.28948,R,ugm-3,50.19186,R,ugm-3
08-01-2017,17:00,1.30530,R,ugm-3,7.72937,R,ugm-3,9.73080,R,ugm-3,49.89250,R,ugm-3
08-01-2017,18:00,2.68357,R,ugm-3,7.78483,R,ugm-3,11.89958,R,ugm-3,48.79487,R,ugm-3
08-01-2017,19:00,8.41366,R,ugm-3,13.56728,R,ugm-3,26.46804,R,ugm-3,46.54970,R,ugm-3
08-01-2017,20:00,1.55975,R,ugm-3,5.28233,R,ugm-3,7.67391,R,ugm-3,51.93809,R,ugm-3
08-01-2017,21:00,0.65265,R,ugm-3,2.44657,R,ugm-3,3.44728,R,ugm-3,53.83401,R,ugm-3
08-01-2017,22:00,0.32648,R,ugm-3,1.50131,R,ugm-3,2.00191,R,ugm-3,66.20735,R,ugm-3
08-01-2017,23:00,0.54414,R,ugm-3,1.00072,R,ugm-3,1.83504,R,ugm-3,66.95574,R,ugm-3
08-01-2017,24:00,0.29062,R,ugm-3,0.66698,R,ugm-3,1.11260,R,ugm-3,67.30498,R,ugm-3
09-01-2017,01:00,0.29062,R,ugm-3,0.66746,R,ugm-3,1.11308,R,ugm-3,64.92677,R,ugm-3
09-01-2017,02:00,0.33927,R,ugm-3,0.59288,R,ugm-3,1.11308,R,ugm-3,64.86025,R,ugm-3
09-01-2017,03:00,0.29062,R,ugm-3,0.38919,R,ugm-3,0.83481,R,ugm-3,67.75402,R,ugm-3
09-01-2017,04:00,0.25414,R,ugm-3,0.27827,R,ugm-3,0.66794,R,ugm-3,73.44176,R,ugm-3
09-01-2017,05:00,0.83569,R,ugm-3,0.94478,R,ugm-3,2.22615,R,ugm-3,72.14456,R,ugm-3
09-01-2017,06:00,0.61741,R,ugm-3,1.44681,R,ugm-3,2.39349,R,ugm-3,87.81080,R,ugm-3
09-01-2017,07:00,1.01749,R,ugm-3,2.78078,R,ugm-3,4.34090,R,ugm-3,82.17295,R,ugm-3
09-01-2017,08:00,0.79952,R,ugm-3,5.06287,R,ugm-3,6.28878,R,ugm-3,75.68692,R,ugm-3
09-01-2017,09:00,1.41662,R,ugm-3,6.84340,R,ugm-3,9.01553,R,ugm-3,68.85165,R,ugm-3
09-01-2017,10:00,1.70755,R,ugm-3,7.95600,R,ugm-3,10.57421,R,ugm-3,67.60434,R,ugm-3
09-01-2017,11:00,3.66893,R,ugm-3,8.51015,R,ugm-3,14.13577,R,ugm-3,69.79961,R,ugm-3
09-01-2017,12:00,12.20608,R,ugm-3,27.92202,R,ugm-3,46.63775,R,ugm-3,52.63659,R,ugm-3
09-01-2017,13:00,2.28880,R,ugm-3,7.89958,R,ugm-3,11.40902,R,ugm-3,73.39187,R,ugm-3
09-01-2017,14:00,2.25231,R,ugm-3,7.56585,R,ugm-3,11.01935,R,ugm-3,71.89509,R,ugm-3
09-01-2017,15:00,2.50676,R,ugm-3,7.84364,R,ugm-3,11.68729,R,ugm-3,72.64348,R,ugm-3
09-01-2017,16:00,1.74373,R,ugm-3,5.95313,R,ugm-3,8.62681,R,ugm-3,71.39617,R,ugm-3
09-01-2017,17:00,2.14317,R,ugm-3,8.06740,R,ugm-3,11.35356,R,ugm-3,68.40262,R,ugm-3
09-01-2017,18:00,1.99786,R,ugm-3,6.78746,R,ugm-3,9.85081,R,ugm-3,68.25294,R,ugm-3
09-01-2017,19:00,4.79493,R,ugm-3,8.06453,R,ugm-3,15.41666,R,ugm-3,66.55660,R,ugm-3
09-01-2017,20:00,5.52211,R,ugm-3,10.45516,R,ugm-3,18.92228,R,ugm-3,71.84520,R,ugm-3
09-01-2017,21:00,1.05335,R,ugm-3,2.67033,R,ugm-3,4.28543,R,ugm-3,78.43101,R,ugm-3
09-01-2017,22:00,0.69038,R,ugm-3,3.39373,R,ugm-3,4.45230,R,ugm-3,76.93424,R,ugm-3
09-01-2017,23:00,0.47242,R,ugm-3,0.44418,R,ugm-3,1.16854,R,ugm-3,78.78026,R,ugm-3
09-01-2017,24:00,0.36359,R,ugm-3,0.05451,R,ugm-3,0.61200,R,ugm-3,78.88004,R,ugm-3
10-01-2017,01:00,0.38791,R,ugm-3,0.00000,R,ugm-3,0.59479,R,ugm-3,78.83015,R,ugm-3
10-01-2017,02:00,0.47273,R,ugm-3,-0.16782,R,ugm-3,0.55702,R,ugm-3,80.22714,R,ugm-3
10-01-2017,03:00,0.36328,R,ugm-3,0.33469,R,ugm-3,0.89170,R,ugm-3,81.97338,R,ugm-3
10-01-2017,04:00,0.29062,R,ugm-3,0.16782,R,ugm-3,0.61343,R,ugm-3,84.16865,R,ugm-3
10-01-2017,05:00,0.36328,R,ugm-3,0.55749,R,ugm-3,1.11451,R,ugm-3,84.61768,R,ugm-3
10-01-2017,06:00,0.83632,R,ugm-3,2.33803,R,ugm-3,3.62036,R,ugm-3,82.17295,R,ugm-3
10-01-2017,07:00,8.21721,R,ugm-3,7.00692,R,ugm-3,19.60647,R,ugm-3,77.58284,R,ugm-3
10-01-2017,08:00,1.89060,R,ugm-3,5.67965,R,ugm-3,8.57852,R,ugm-3,74.58929,R,ugm-3
10-01-2017,09:00,1.27256,R,ugm-3,3.45111,R,ugm-3,5.40233,R,ugm-3,74.88864,R,ugm-3
10-01-2017,10:00,1.34521,R,ugm-3,6.12526,R,ugm-3,8.18789,R,ugm-3,70.44821,R,ugm-3
10-01-2017,11:00,2.54543,R,ugm-3,10.24526,R,ugm-3,14.14820,R,ugm-3,64.71057,R,ugm-3
10-01-2017,12:00,4.72664,R,ugm-3,10.13147,R,ugm-3,17.37889,R,ugm-3,68.35273,R,ugm-3
10-01-2017,13:00,7.34410,R,ugm-3,18.81804,R,ugm-3,30.07884,R,ugm-3,61.36778,R,ugm-3
10-01-2017,14:00,2.54512,R,ugm-3,8.51923,R,ugm-3,12.42169,R,ugm-3,70.59789,R,ugm-3
10-01-2017,15:00,1.49084,R,ugm-3,5.62371,R,ugm-3,7.90962,R,ugm-3,80.62628,R,ugm-3
10-01-2017,16:00,1.67263,R,ugm-3,8.79846,R,ugm-3,11.36312,R,ugm-3,76.58499,R,ugm-3
10-01-2017,17:00,1.34521,R,ugm-3,8.63255,R,ugm-3,10.69518,R,ugm-3,73.24219,R,ugm-3
10-01-2017,18:00,4.90844,R,ugm-3,12.97201,R,ugm-3,20.49818,R,ugm-3,68.15316,R,ugm-3
10-01-2017,19:00,11.70747,R,ugm-3,23.04419,R,ugm-3,40.99539,R,ugm-3,60.61939,R,ugm-3
10-01-2017,20:00,12.50730,R,ugm-3,24.15774,R,ugm-3,43.33534,R,ugm-3,56.67788,R,ugm-3
10-01-2017,21:00,28.83259,R,ugm-3,15.83693,R,ugm-3,60.04628,R,ugm-3,73.19230,R,ugm-3
10-01-2017,22:00,0.58155,R,ugm-3,1.72603,R,ugm-3,2.61773,R,ugm-3,79.67832,R,ugm-3
10-01-2017,23:00,0.58155,R,ugm-3,1.22448,R,ugm-3,2.11618,R,ugm-3,80.42671,R,ugm-3
10-01-2017,24:00,0.29062,R,ugm-3,0.27827,R,ugm-3,0.72388,R,ugm-3,78.28133,R,ugm-3
11-01-2017,01:00,0.33927,R,ugm-3,0.07459,R,ugm-3,0.59479,R,ugm-3,85.08334,R,ugm-3
11-01-2017,02:00,0.53343,R,ugm-3,0.00000,R,ugm-3,0.81791,R,ugm-3,85.48248,R,ugm-3
11-01-2017,03:00,0.29062,R,ugm-3,-0.05546,R,ugm-3,0.39015,R,ugm-3,84.66757,R,ugm-3
11-01-2017,04:00,0.36359,R,ugm-3,0.11140,R,ugm-3,0.66890,R,ugm-3,87.01252,R,ugm-3
11-01-2017,05:00,0.25445,R,ugm-3,0.00048,R,ugm-3,0.39063,R,ugm-3,88.01037,R,ugm-3
11-01-2017,06:00,2.11043,R,ugm-3,1.16806,R,ugm-3,4.40401,R,ugm-3,85.16650,R,ugm-3
11-01-2017,07:00,0.54601,R,ugm-3,0.61248,R,ugm-3,1.44968,R,ugm-3,83.96908,R,ugm-3
11-01-2017,08:00,1.71005,R,ugm-3,2.56275,R,ugm-3,5.18479,R,ugm-3,83.17080,R,ugm-3
11-01-2017,09:00,0.83694,R,ugm-3,1.28138,R,ugm-3,2.56466,R,ugm-3,82.62198,R,ugm-3
11-01-2017,10:00,0.90991,R,ugm-3,1.55964,R,ugm-3,2.95481,R,ugm-3,80.82585,R,ugm-3
11-01-2017,11:00,0.80077,R,ugm-3,1.05761,R,ugm-3,2.28544,R,ugm-3,85.86499,R,ugm-3
11-01-2017,12:00,1.89215,R,ugm-3,2.50681,R,ugm-3,5.40807,R,ugm-3,80.02757,R,ugm-3
11-01-2017,13:00,1.09201,R,ugm-3,1.78197,R,ugm-3,3.45637,R,ugm-3,81.87359,R,ugm-3
11-01-2017,14:00,1.34677,R,ugm-3,2.22758,R,ugm-3,4.29261,R,ugm-3,82.32263,R,ugm-3
11-01-2017,15:00,1.20115,R,ugm-3,1.78197,R,ugm-3,3.62371,R,ugm-3,82.32263,R,ugm-3
11-01-2017,16:00,1.01904,R,ugm-3,1.83839,R,ugm-3,3.40090,R,ugm-3,83.12091,R,ugm-3
11-01-2017,17:00,1.05553,R,ugm-3,2.06120,R,ugm-3,3.67965,R,ugm-3,82.97123,R,ugm-3
11-01-2017,18:00,1.52825,R,ugm-3,2.89696,R,ugm-3,5.24025,R,ugm-3,83.22069,R,ugm-3
11-01-2017,19:00,1.12787,R,ugm-3,2.06168,R,ugm-3,3.79105,R,ugm-3,81.02542,R,ugm-3
11-01-2017,20:00,1.09201,R,ugm-3,2.00526,R,ugm-3,3.67965,R,ugm-3,80.57639,R,ugm-3
11-01-2017,21:00,0.87342,R,ugm-3,0.94621,R,ugm-3,2.28544,R,ugm-3,81.47445,R,ugm-3
11-01-2017,22:00,0.65546,R,ugm-3,1.00167,R,ugm-3,2.00669,R,ugm-3,82.62198,R,ugm-3
11-01-2017,23:00,0.58249,R,ugm-3,0.38919,R,ugm-3,1.28233,R,ugm-3,82.42241,R,ugm-3
11-01-2017,24:00,0.43656,R,ugm-3,0.22185,R,ugm-3,0.89123,R,ugm-3,81.67402,R,ugm-3
12-01-2017,01:00,0.43780,R,ugm-3,0.44561,R,ugm-3,1.11690,R,ugm-3,81.02542,R,ugm-3
12-01-2017,02:00,0.72905,R,ugm-3,0.33421,R,ugm-3,1.45207,R,ugm-3,81.15847,R,ugm-3
12-01-2017,03:00,0.51077,R,ugm-3,0.38967,R,ugm-3,1.17284,R,ugm-3,80.57639,R,ugm-3
12-01-2017,04:00,0.40132,R,ugm-3,0.38967,R,ugm-3,1.00502,R,ugm-3,79.82800,R,ugm-3
12-01-2017,05:00,4.37428,R,ugm-3,15.29570,R,ugm-3,22.00283,R,ugm-3,76.68477,R,ugm-3
12-01-2017,06:00,1.82293,R,ugm-3,3.90628,R,ugm-3,6.70140,R,ugm-3,73.29208,R,ugm-3
12-01-2017,07:00,1.56754,R,ugm-3,3.79536,R,ugm-3,6.19889,R,ugm-3,73.34198,R,ugm-3
12-01-2017,08:00,2.77057,R,ugm-3,9.21060,R,ugm-3,13.45874,R,ugm-3,67.30498,R,ugm-3
12-01-2017,09:00,3.09829,R,ugm-3,9.54577,R,ugm-3,14.29642,R,ugm-3,75.38757,R,ugm-3
12-01-2017,10:00,2.80674,R,ugm-3,8.81997,R,ugm-3,13.12358,R,ugm-3,72.34413,R,ugm-3
12-01-2017,11:00,5.75941,R,ugm-3,14.28877,R,ugm-3,23.11973,R,ugm-3,66.25724,R,ugm-3
12-01-2017,12:00,2.22362,R,ugm-3,7.81543,R,ugm-3,11.22494,R,ugm-3,70.19875,R,ugm-3
12-01-2017,13:00,1.74996,R,ugm-3,8.70905,R,ugm-3,11.39228,R,ugm-3,70.44821,R,ugm-3
12-01-2017,14:00,3.97296,R,ugm-3,11.72267,R,ugm-3,17.81446,R,ugm-3,69.79961,R,ugm-3
12-01-2017,15:00,2.84353,R,ugm-3,13.78960,R,ugm-3,18.14963,R,ugm-3,65.80821,R,ugm-3
12-01-2017,16:00,3.02533,R,ugm-3,18.48097,R,ugm-3,23.11973,R,ugm-3,59.07272,R,ugm-3
12-01-2017,17:00,2.22362,R,ugm-3,19.15178,R,ugm-3,22.56128,R,ugm-3,55.58025,R,ugm-3
12-01-2017,18:00,7.83741,R,ugm-3,29.75468,R,ugm-3,41.77187,R,ugm-3,45.60175,R,ugm-3
12-01-2017,19:00,2.00504,R,ugm-3,18.25864,R,ugm-3,21.33298,R,ugm-3,52.78627,R,ugm-3
12-01-2017,20:00,1.67668,R,ugm-3,17.58926,R,ugm-3,20.16014,R,ugm-3,53.13551,R,ugm-3
12-01-2017,21:00,4.00976,R,ugm-3,23.44964,R,ugm-3,29.59785,R,ugm-3,47.99659,R,ugm-3
12-01-2017,22:00,0.83850,R,ugm-3,6.70044,R,ugm-3,7.98612,R,ugm-3,66.65638,R,ugm-3
12-01-2017,23:00,0.80201,R,ugm-3,4.69041,R,ugm-3,5.92014,R,ugm-3,72.19445,R,ugm-3
12-01-2017,24:00,0.43780,R,ugm-3,0.83672,R,ugm-3,1.50801,R,ugm-3,79.07961,R,ugm-3